Location: Austin
(30.3000°N, 97.7500°W)
Time: 23:09:01
(UTC-05:00)

Meteor 1-27 - Pass Details

Date: 06 May 2026
Orbit: 835 x 892 km, 81.3° (Epoch: 13 May)

Event Time Altitude Azimuth Distance (km) Brightness Sun altitude
Exits shadow 22:30:50 72° 90° (E) 906 4.1 -26.5°
Drops below altitude 10° 22:36:24 10° 12° (NNE) 2,488 7.0 -27.4°
Sets 22:38:49 0° 11° (N) 3,419 7.8 -27.8°
